Regional Weather Roundup
Issued by NWS Nashville, TN

Current Version | Previous Version | Text Only | Print | Product List | Glossary Off
Versions: 1 2 3 4 5 6 7 8 9 10 11 12 13 14 15 16 17 18 19 20 21 22 23 24 25 26 27 28 29 30 31 32 33 34 35 36 37 38 39 40 41 42 43 44 45 46 47 48 49 50

000
ASUS44 KOHX 022110
RWROHX
MIDDLE TENNESSEE HOURLY WEATHER ROUNDUP
NATIONAL WEATHER SERVICE NASHVILLE TN
400 PM CDT WED SEP 02 2015

NOTE: "FAIR" INDICATES FEW OR NO CLOUDS BELOW 12,000 FEET WITH
NO SIGNIFICANT WEATHER AND/OR OBSTRUCTIONS TO VISIBILITY.

* THESE REPORTS ARE NOT UNDER NWS QUALITY CONTROL AND MAY NOT
  REPORT WEATHER SUCH AS PRECIPITATION AND FOG.


TNZ005>011-023>034-057-059-062>066-078-080-022200
...NORTHERN MIDDLE TENNESSEE...

CITY           SKY/WX    TMP DP  RH WIND       PRES   REMARKS
CLARKSVILLE    CLOUDY    91  65  41 NW6       30.03F HX  93
CROSSVILLE     CLOUDY    84  63  49 N3        30.11F
DICKSON          N/A     88  66  48 E3        30.05F HX  90
NASHVILLE      PTSUNNY   90  63  40 SE3       30.03F HX  91
SMYRNA           N/A     94  67  41 CALM      30.03F HX  97
$$
TNZ056-058-060-061-075>077-079-093>097-022200
...SOUTHERN MIDDLE TENNESSEE...

CITY           SKY/WX    TMP DP  RH WIND       PRES   REMARKS
COLUMBIA       SUNNY     90  70  51 S3        30.03F HX  95
LEWISBURG        N/A     90  68  48 CALM      30.04F HX  94
MCMINNVILLE    MOSUNNY   88  70  55 W5        30.06F HX  92
SHELBYVILLE    SUNNY     90  72  55 CALM      30.05F HX  96
TULLAHOMA      SUNNY     84  64  51 CALM      30.07F
WINCHESTER     SUNNY     84  70  61 E3        30.05F
$$


...KEY TO REMARKS...
VSB - VISIBILITY IN MILES
WCI - WIND CHILL INDEX
HX  - HEAT INDEX



USA.gov is the U.S. government's official web portal to all federal, state and local government web resources and services.